This is the latest recevied weather packets stored in our database for station/object KB1FPD. If no packets are shown the sender has not sent any weather packets the latest 1 day(s).
| Time | Temp. | Humidity | Pressure | Rain* | Wind** | Luminosity | Snow |
|---|---|---|---|---|---|---|---|
| 1777985438 | 17.22° C | 68% | 1012.2 hPa | 0 mm | 2.68 m/s, 230° | - | - |
| 1777985143 | 16.67° C | 70% | 1012.3 hPa | 0 mm | 2.24 m/s, 234° | - | - |
| 1777984834 | 16.67° C | 71% | 1012.4 hPa | 0 mm | 2.24 m/s, 240° | - | - |
| 1777984537 | 16.11° C | 71% | 1012.5 hPa | 0 mm | 1.79 m/s, 227° | - | - |
| 1777984235 | 15.56° C | 74% | 1012.6 hPa | 0 mm | 1.34 m/s, 214° | - | - |
| 1777983934 | 15.56° C | 72% | 1012.6 hPa | 0 mm | 1.34 m/s, 221° | - | - |
| 1777983636 | 15.56° C | 74% | 1012.6 hPa | 0 mm | 0.89 m/s, 197° | - | - |
| 1777983332 | 15.56° C | 75% | 1012.6 hPa | 0 mm | 0.89 m/s, 200° | - | - |
| 1777983035 | 15° C | 74% | 1012.6 hPa | 0 mm | 1.34 m/s, 208° | - | - |
| 1777982433 | 15° C | 74% | 1012.7 hPa | 0 mm | 1.34 m/s, 210° | - | - |
| 1777982132 | 14.44° C | 74% | 1012.6 hPa | 0 mm | 1.79 m/s, 165° | - | - |
| 1777981840 | 14.44° C | 77% | 1012.5 hPa | 0 mm | 1.79 m/s, 163° | - | - |
| 1777981534 | 13.89° C | 79% | 1012.4 hPa | 0 mm | 1.34 m/s, 140° | - | - |
| 1777981235 | 13.89° C | 77% | 1012.3 hPa | 0 mm | 0.89 m/s, 182° | - | - |
| 1777980932 | 13.33° C | 77% | 1012.3 hPa | 0 mm | 0.45 m/s, 177° | - | - |
| 1777980634 | 13.33° C | 78% | 1012.2 hPa | 0 mm | 0.45 m/s, 209° | - | - |
| 1777980332 | 13.33° C | 77% | 1012.1 hPa | 0 mm | 0 m/s | - | - |
| 1777980039 | 13.33° C | 77% | 1012.1 hPa | 0 mm | 0.45 m/s, 208° | - | - |
| 1777979732 | 13.89° C | 76% | 1011.9 hPa | 0 mm | 0.45 m/s, 208° | - | - |
| 1777979433 | 13.89° C | 75% | 1011.9 hPa | 0 mm | 0.89 m/s, 208° | - | - |
| 1777979132 | 13.89° C | 75% | 1011.9 hPa | 0 mm | 1.34 m/s, 195° | - | - |
| 1777978833 | 13.89° C | 76% | 1011.8 hPa | 0 mm | 1.34 m/s, 186° | - | - |
| 1777978532 | 13.33° C | 77% | 1011.7 hPa | 0 mm | 1.34 m/s, 160° | - | - |
| 1777978231 | 13.33° C | 78% | 1011.7 hPa | 0 mm | 0.89 m/s, 144° | - | - |
| 1777977930 | 13.33° C | 77% | 1011.5 hPa | 0 mm | 0.89 m/s, 176° | - | - |
* Rain latest hour (hover to see other rain measurements)
** Current wind speed in m/s (hover to see current wind gust speed)